Location: Newark
(41.1142°N, 73.9831°W)
Time: 10:00:54
(UTC+00:00)

ISS - Pass Details

Date: 28 September 2019
Orbit: 411 x 421 km, 51.6° (Epoch: 23 October)

Event Time Altitude Azimuth Distance (km) Brightness Sun altitude
Rises 00:43:32 0° 302° (WNW) 2,345 1.4 -22.8°
Reaches altitude 10° 00:46:28 10° 331° (NNW) 1,482 -0.4 -23.4°
Enters shadow 00:48:06 14° 1° (N) 1,288 -1.1 -23.7°
